[[{"header":{"parameterUnit":"m.s-1","parameterCategory":1,"la1":30.2991,"la2":30.254,"lo1":-89.0895,"lo2":-89.0444,"dy":0.0017,"dx":0.0017,"nx":28,"ny":28,"refTime":"2023-08-07T03:00:00:Z","depth":0,"parameterNumber":2,"parameterNumberName":"U-component_of_WINDS"},"data":[0,0,0,0,0,0,0,0,0,0,0,0,0,0,0,0,0,0,0,0,0,0,0,0,0,0,0,0,0,0,0,0,0,0,0,0,0,0,0,0,0,0,0,0,0,0,0,0,0,0,0,0,0,0,0,0,0,0,-0.0136,-0.0134,0,0.004,0.0042,0.0044,0.0125,0.0125,0.0125,0.0125,0.0306,0.0311,0.0315,0,0,0,0,0,0,0,0,0,0,0,0,0,-0.0402,-0.0397,-0.0136,-0.0134,-0.0132,0.0039,0.0042,0.0044,0.0125,0.0125,0.0125,0.0125,0.0304,0.031,0.0316,0,0,0,0,0,0,0,0,0,0,0,0,0,-0.0262,-0.0396,-0.0137,-0.0071,-0.0063,0.0039,0.0042,0.0045,0.0126,0.0125,0.0125,0.0125,0.0302,0.0309,0.0317,0.0366,0,0,0.0339,0.0342,0,0,0,0,0,0,0,0,-0.027,-0.0253,-0.0083,-0.0075,-0.0066,0.006,0.0015,0.0153,0.0126,0.0054,0.0125,0.0125,0.0224,0.0238,0.0272,0.0375,0.0383,0.034,0.0344,0.0348,0.035,0,0,0,0,0,0,0,-0.028,-0.026,-0.0067,-0.008,-0.007,-0.005,-0.003,0.0041,0.0138,0.006,0.0067,0.0086,0.0229,0.0264,0.0276,0.0385,0.034,0.0346,0.0351,0.0354,0.0538,0.0539,0,0,0,0,0,0,-0.0301,-0.0268,-0.0072,-0.0061,-0.0171,-0.0045,-0.0023,0.002,0.0138,0.0155,0.0086,0.0089,0.0252,0.0268,0.0283,0.0349,0.0348,0.0354,0.0359,0.0538,0.0538,0.0539,0,0,0,0,0,0,-0.0307,-0.0284,-0.0079,-0.0163,-0.0135,-0.004,0.0007,0.0024,0.0059,0.0157,0.0175,0.0105,0.0252,0.0273,0.0345,0.0357,0.0358,0.0365,0.0537,0.0538,0.0539,0.0482,0,0,0,0,0,0,-0.0315,-0.0287,-0.0267,-0.0163,-0.0131,-0.002,0.0008,0.0027,0.0072,0.0077,0.0179,0.0196,0.0254,0.0334,0.0352,0.0367,0.037,0.0537,0.0538,0.0538,0.0483,0.0481,0.0478,0,0,0,0,0,-0.0324,-0.0289,-0.0266,-0.0243,-0.0104,-0.002,-0.0002,0.0064,0.0072,0.0093,0.0156,0.0193,0.0352,0.034,0.0362,0.0379,0.0536,0.0537,0.0538,0.0484,0.0481,0.0478,0,0,0,0,0,0,-0.0394,-0.0275,-0.0247,-0.0178,-0.011,-0.0006,0.0022,0.0058,0.0126,0.0128,0.0207,0.0229,0.0295,0.0344,0.0329,0.0433,0.0448,0.0453,0.0399,0.0397,0.0394,0.0381,0.0377,0,0,0,0,0,-0.0401,-0.0342,-0.0241,-0.019,-0.0157,-0.0074,-0.0034,0.001,0.0084,0.0113,0.0182,0.0252,0.0318,0.036,0.0426,0.049,0.0514,0.0513,0.051,0.0508,0.0512,0.055,0.055,0.0542,0.0542,0.0542,0,0,-0.0415,-0.0343,-0.031,-0.0202,-0.0144,-0.0085,-0.005,0.0011,0.0056,0.0123,0.0195,0.0247,0.0331,0.04,0.0433,0.0443,0.0519,0.0509,0.0506,0.0512,0.0551,0.0551,0.0552,0.0543,0.0543,0.0543,0,0,-0.0411,-0.035,-0.0301,-0.0243,-0.0156,-0.0101,-0.0089,0.0009,0.0046,0.012,0.0171,0.0225,0.0337,0.0395,0.0439,0.0464,0.0501,0.0483,0.0471,0.0507,0.0508,0.0509,0.0518,0.052,0.0487,0.0487,0.0487,0,-0.0439,-0.0348,-0.028,-0.0221,-0.0175,-0.0113,-0.0062,-0.0009,0.0095,0.0125,0.0134,0.0276,0.0337,0.042,0.0426,0.0459,0.0475,0.0473,0.0502,0.0504,0.0506,0.0515,0.0519,0.0484,0.0484,0.0485,0.0485,0,-0.0387,-0.0325,-0.0296,-0.0196,-0.0147,-0.0093,-0.0017,0.0025,0.0065,0.0119,0.0193,0.0268,0.035,0.0373,0.0413,0.0462,0.0465,0.0487,0.0503,0.0503,0.0513,0.0518,0.048,0.0481,0.0482,0.0483,0,0,-0.042,-0.0285,-0.0275,-0.0229,-0.0129,-0.0079,-0.0023,0.0058,0.0092,0.0161,0.0211,0.0304,0.0325,0.0375,0.0421,0.0452,0.0468,0.0471,0.0474,0.0468,0.0527,0.051,0.0513,0.0492,0.0493,0.0494,0.052,0,-0.0402,-0.0297,-0.0234,-0.0155,-0.0096,-0.0037,0.0013,0.008,0.0131,0.0188,0.0245,0.031,0.0332,0.0363,0.0396,0.0458,0.048,0.0457,0.0539,0.0541,0.0517,0.0519,0.0502,0.0523,0.0524,0.0525,0.0526,0,-0.0365,-0.0297,-0.0212,-0.0118,-0.0092,-0.0048,0.003,0.0084,0.0161,0.0196,0.0251,0.0297,0.0359,0.0369,0.0456,0.0439,0.0476,0.0511,0.0514,0.0525,0.0534,0.053,0.0531,0.0534,0.0533,0.0532,0.0532,0,-0.0397,-0.0284,-0.0219,-0.0182,-0.0071,-0.0042,0.0006,0.0082,0.0126,0.0195,0.0224,0.0299,0.034,0.0397,0.0462,0.0463,0.0542,0.0558,0.0574,0.0572,0.0589,0.0587,0.0596,0.0611,0.0611,0.0611,0.0611,0,-0.0382,-0.0332,-0.0232,-0.0191,-0.0134,-0.0063,-0.0008,0.0044,0.0112,0.0163,0.0219,0.0266,0.0349,0.0406,0.0458,0.0522,0.054,0.0571,0.0584,0.0566,0.0562,0.0592,0.0593,0.0612,0.0612,0.0611,0.0611,0,-0.0407,-0.0338,-0.0263,-0.0164,-0.0138,-0.0101,-0.0016,0.0025,0.0079,0.0144,0.0163,0.0248,0.0318,0.0388,0.0483,0.0518,0.0581,0.0599,0.0555,0.0563,0.0575,0.0573,0.0605,0.0613,0.062,0.062,0.062,0,-0.0402,-0.0362,-0.026,-0.0221,-0.0175,-0.0114,-0.0069,0.0003,0.0047,0.0138,0.0168,0.0242,0.0306,0.0415,0.0485,0.0558,0.0578,0.0584,0.059,0.0571,0.0579,0.0576,0.0581,0.0582,0.0582,0.0581,0.0581,0,-0.0399,-0.0367,-0.0304,-0.0229,-0.0177,-0.0114,-0.005,-0.0022,0.0062,0.0109,0.0182,0.0231,0.0327,0.04,0.0481,0.053,0.057,0.0578,0.0586,0.0569,0.0543,0.0558,0.055,0.0578,0.0578,0.0578,0.0578,0.0579,-0.0408,-0.037,-0.0292,-0.0224,-0.0168,-0.0109,-0.0065,-0.0006,0.0055,0.0139,0.0177,0.025,0.0326,0.0438,0.0486,0.0544,0.0555,0.0566,0.0569,0.0571,0.0567,0.0532,0.0559,0.056,0.056,0.056,0.056,0,-0.0402,-0.0349,-0.0287,-0.0199,-0.0145,-0.0114,-0.0041,0.0002,0.0065,0.0132,0.0193,0.0276,0.0347,0.0423,0.0498,0.053,0.055,0.0547,0.0546,0.0557,0.0553,0.0539,0.053,0.053,0.053,0.053,0.053,0.053,-0.0392,-0.0326,-0.0285,-0.0191,-0.0138,-0.0066,-0.0028,0.0027,0.0081,0.0171,0.023,0.0278,0.0349,0.043,0.0496,0.0517,0.0542,0.0535,0.056,0.0555,0.0557,0.0559,0.0547,0.0539,0.0539,0.056,0.056,0.056]},{"header":{"parameterUnit":"m.s-1","parameterCategory":1,"la1":30.2991,"la2":30.254,"lo1":-89.0895,"lo2":-89.0444,"dy":0.0017,"dx":0.0017,"nx":28,"ny":28,"refTime":"2023-08-07T03:00:00:Z","depth":0,"parameterNumber":3,"parameterNumberName":"V-component_of_WINDS"},"data":[0,0,0,0,0,0,0,0,0,0,0,0,0,0,0,0,0,0,0,0,0,0,0,0,0,0,0,0,0,0,0,0,0,0,0,0,0,0,0,0,0,0,0,0,0,0,0,0,0,0,0,0,0,0,0,0,0,0,5.0799,5.0798,0,5.0734,5.0734,5.0733,5.0637,5.0635,5.0634,5.0632,5.0564,5.0564,5.0564,0,0,0,0,0,0,0,0,0,0,0,0,0,5.0839,5.0839,5.0799,5.0798,5.0798,5.0734,5.0734,5.0733,5.0637,5.0635,5.0633,5.0631,5.0565,5.0564,5.0564,0,0,0,0,0,0,0,0,0,0,0,0,0,5.0803,5.0839,5.0799,5.0742,5.0737,5.0735,5.0734,5.0732,5.0638,5.0635,5.0633,5.0631,5.0565,5.0564,5.0564,5.0612,0,0,5.0563,5.0563,0,0,0,0,0,0,0,0,5.0805,5.0802,5.0752,5.0746,5.074,5.0691,5.0723,5.0692,5.0639,5.0675,5.0632,5.0629,5.0609,5.0604,5.0598,5.0609,5.0606,5.0563,5.0562,5.0562,5.0562,0,0,0,0,0,0,0,5.0808,5.0804,5.0773,5.0751,5.0744,5.072,5.0712,5.0717,5.0657,5.0672,5.0665,5.0659,5.0605,5.0598,5.0595,5.0605,5.0563,5.0562,5.0562,5.0562,5.0652,5.0654,0,0,0,0,0,0,5.0819,5.0807,5.0775,5.0771,5.0767,5.0721,5.0712,5.0709,5.0656,5.0646,5.0661,5.0654,5.06,5.0596,5.0593,5.0645,5.0562,5.0562,5.0562,5.0649,5.0652,5.0655,0,0,0,0,0,0,5.082,5.0817,5.0778,5.0787,5.078,5.0723,5.0721,5.0709,5.0703,5.0648,5.0637,5.0665,5.0598,5.0593,5.0608,5.0642,5.0562,5.0561,5.0646,5.065,5.0654,5.0752,0,0,0,0,0,0,5.0822,5.0818,5.0836,5.0788,5.078,5.0795,5.0723,5.071,5.0703,5.0694,5.0649,5.0639,5.0596,5.0609,5.0608,5.064,5.0561,5.0643,5.0648,5.0653,5.0745,5.0758,5.077,0,0,0,0,0,5.0824,5.0866,5.0837,5.0834,5.0801,5.0797,5.0793,5.0742,5.0706,5.0723,5.0688,5.0641,5.0639,5.0611,5.0609,5.0642,5.0641,5.0647,5.0652,5.074,5.0756,5.077,0,0,0,0,0,0,5.0918,5.0858,5.0826,5.0854,5.0832,5.0781,5.0801,5.0761,5.0747,5.0739,5.0677,5.0667,5.069,5.0667,5.0638,5.0685,5.0632,5.0638,5.07,5.0715,5.0727,5.0732,5.0561,0,0,0,0,0,5.0942,5.0944,5.0892,5.0921,5.0912,5.0859,5.0855,5.0818,5.0792,5.0782,5.0748,5.0724,5.0717,5.0715,5.0706,5.0741,5.073,5.0763,5.0775,5.0785,5.0791,5.0808,5.0822,5.0675,5.0675,5.0674,0,0,5.0992,5.096,5.0965,5.094,5.0918,5.0921,5.0851,5.0858,5.0859,5.0782,5.0795,5.0769,5.0738,5.0764,5.0773,5.0745,5.0829,5.0793,5.0802,5.0801,5.0816,5.083,5.0842,5.0679,5.0678,5.0677,0,0,5.1085,5.106,5.1083,5.1062,5.103,5.0995,5.1001,5.0956,5.0937,5.0948,5.0891,5.0892,5.0882,5.0863,5.0851,5.0938,5.0894,5.0937,5.1001,5.1019,5.103,5.104,5.1071,5.1083,5.0942,5.0943,5.0943,0,5.1151,5.1153,5.1099,5.1109,5.11,5.1032,5.1054,5.1036,5.1003,5.0998,5.0968,5.0955,5.0929,5.0949,5.0971,5.0964,5.0968,5.0941,5.1033,5.1043,5.1051,5.108,5.1092,5.0948,5.0947,5.0947,5.0946,0,5.1236,5.1239,5.1261,5.1231,5.1225,5.1241,5.1189,5.1189,5.1153,5.1121,5.1133,5.11,5.1084,5.1086,5.105,5.1101,5.1085,5.1045,5.099,5.1072,5.1098,5.1108,5.0956,5.0954,5.0952,5.0951,0,0,5.1386,5.1327,5.1336,5.1322,5.1282,5.1283,5.1296,5.1281,5.1282,5.1261,5.1271,5.1265,5.1228,5.1215,5.1177,5.1192,5.1263,5.115,5.1148,5.1172,5.1318,5.1348,5.1362,5.1234,5.1236,5.1237,5.132,0,5.147,5.149,5.1442,5.1473,5.1475,5.1411,5.1422,5.1399,5.137,5.1367,5.1334,5.1331,5.1282,5.1274,5.1287,5.1252,5.1292,5.1245,5.1242,5.1243,5.1252,5.1375,5.1408,5.1487,5.133,5.1332,5.1333,0,5.1572,5.1557,5.1589,5.1548,5.1547,5.1558,5.1541,5.1539,5.1511,5.1489,5.1476,5.1431,5.1441,5.1389,5.1402,5.1372,5.1367,5.135,5.1352,5.135,5.1293,5.1377,5.1512,5.1524,5.1348,5.1347,5.1346,0,5.1678,5.1667,5.1684,5.1674,5.1627,5.1636,5.1617,5.1587,5.1581,5.1565,5.156,5.1546,5.1539,5.1528,5.1481,5.1448,5.15,5.1444,5.1481,5.1482,5.1495,5.1494,5.1631,5.1492,5.1492,5.1492,5.1492,0,5.1778,5.18,5.1732,5.1743,5.1765,5.171,5.1734,5.1708,5.1682,5.1687,5.1629,5.1635,5.1572,5.1571,5.1534,5.155,5.1547,5.1529,5.1519,5.1534,5.1537,5.153,5.1524,5.1495,5.1494,5.1494,5.1493,0,5.19,5.1855,5.1871,5.1825,5.1814,5.1833,5.1793,5.1801,5.1768,5.1775,5.1773,5.1722,5.1717,5.1669,5.1654,5.1629,5.166,5.1639,5.1669,5.1663,5.1703,5.17,5.184,5.1856,5.1708,5.1709,5.171,0,5.1967,5.1982,5.1938,5.1938,5.1921,5.1921,5.1914,5.1861,5.1857,5.1827,5.1839,5.183,5.1819,5.1815,5.1776,5.1764,5.1742,5.1793,5.174,5.1755,5.1743,5.1743,5.1745,5.1804,5.1806,5.1807,5.1808,0,5.209,5.2067,5.2061,5.2047,5.2042,5.2028,5.2011,5.2013,5.1954,5.1952,5.1947,5.194,5.1924,5.1916,5.1897,5.1876,5.1833,5.1825,5.1833,5.1849,5.1866,5.1858,5.17,5.1822,5.1821,5.182,5.1819,5.1818,5.2186,5.2197,5.2168,5.2163,5.2145,5.213,5.2136,5.2104,5.2099,5.2083,5.2052,5.2052,5.2024,5.1994,5.1977,5.1976,5.195,5.1962,5.1965,5.1969,5.1977,5.1867,5.1973,5.1972,5.1972,5.1971,5.1971,0,5.2306,5.2285,5.2281,5.2259,5.2255,5.2215,5.2194,5.2193,5.2194,5.2172,5.2164,5.2158,5.215,5.2111,5.2098,5.2105,5.2085,5.2104,5.2103,5.2099,5.2001,5.1995,5.212,5.212,5.212,5.212,5.212,5.212,5.2369,5.2385,5.236,5.2367,5.2344,5.2344,5.2336,5.2322,5.2305,5.2301,5.2295,5.2269,5.224,5.2225,5.2216,5.2205,5.2203,5.2229,5.2211,5.212,5.2106,5.2092,5.2086,5.2229,5.2229,5.2308,5.2309,5.231]}]]